Simultaneous Nadir Overpasses (SNOs) Predictions

Prediction of SNOs between METOP-B and TERRA Satellite Orbit:

Table of predicted SNOs for the next 14.0 days since TLE Epoch: 3/23/2024
Index Date (METOP-B) Time (METOP-B) Lat,Lon (METOP-B) SZA (METOP-B ) Date (TERRA) Time (TERRA) Lat,Lon (TERRA) SZA (TERRA ) Distance(km) Time Diff (sec)
1 03/24/2024 03:56:24 80.27, 143.82 79.30 03/24/2024 03:57:13 80.27, 143.93 79.33 1.99 49
2 03/24/2024 04:47:00 -80.41, -47.24 100.49 03/24/2024 04:46:31 -80.40, -47.27 100.50 0.82 29
3 03/26/2024 19:17:20 -80.36, 94.55 101.58 03/26/2024 19:17:42 -80.35, 94.43 101.59 2.28 22
4 03/26/2024 20:07:58 80.42, -97.32 78.52 03/26/2024 20:07:01 80.42, -97.24 78.51 1.51 57
5 03/29/2024 09:47:41 -80.27,-124.06 102.73 03/29/2024 09:48:53 -80.26,-124.15 102.72 1.75 72
6 03/29/2024 10:38:19 80.33, 44.04 77.37 03/29/2024 10:38:12 80.34, 44.16 77.38 2.42 7
7 04/01/2024 01:08:37 80.29,-174.06 76.30 04/01/2024 01:09:20 80.29,-174.11 76.31 1.14 43
8 04/01/2024 01:59:14 -80.40, -5.42 103.53 04/01/2024 01:58:38 -80.41, -5.35 103.53 1.43 36
9 04/03/2024 16:29:34 -80.32, 136.07 104.64 04/03/2024 16:29:47 -80.32, 136.05 104.64 0.43 13



Historial Predications of SNOs between METOP-B and TERRA
